Weather History for Sheridan, WY

Change the Weather History Date:

Sunday, February 17, 2013

  Actual Average Record
Temperature  
Mean Temperature 30 °F 27 °F  
Max Temperature 37 °F 39 °F 64 °F (1935)
Min Temperature 23 °F 14 °F -35 °F (1936)
Degree Days  
Heating Degree Days 35 38  
Month to date heating degree days 636 671  
Since 1 July heating degree days 4831 5131  
Cooling Degree Days 0 0  
Month to date cooling degree days 0 0  
Year to date cooling degree days 0 0  
Moisture  
Dew Point 26 °F    
Average Humidity 75    
Maximum Humidity 92    
Minimum Humidity 58    
Precipitation  
Precipitation 0.06 in 0.02 in 0.71 in (1955)
Month to date precipitation 0.41 0.32  
Year to date precipitation 1.37 0.88  
Sea Level Pressure  
Sea Level Pressure 29.79 in    
Wind  
Wind Speed 15 mph (NW)    
Max Wind Speed 38 mph    
Max Gust Speed 45 mph    
Visibility 6 miles    
Events Fog , Snow    
T = Trace of Precipitation, MM = Missing Value Source: NWS Daily Summary

Daily Weather History Graph

Daily Weather History Graph

Search for Another Location

Airport:

Trip Planner

Search our weather history database for the weather conditions in past years. The results will help you decide how hot, cold, wet, or windy it might be!

Date:

Astronomy

Feb. 17, 2013 Rise Set
Actual Time 7:04 AM MST 5:39 PM MST
Civil Twilight 6:34 AM MST 6:09 PM MST
Nautical Twilight 6:00 AM MST 6:43 PM MST
Astronomical Twilight 5:27 AM MST 7:17 PM MST
Moon 10:39 AM MST (2/17) 12:57 AM MST (2/17)
Length of Visible Light 11h 34m
Length of Day
10h 34m
Waxing Crescent, 49% of the Moon is Illuminated
Feb 17
Waxing Crescent
Feb 17
First Quarter
Feb 25
Full
Mar 4
Last Quarter
Mar 11
New

Hourly Weather History & Observations

Time (MST) Temp. Windchill Dew Point Humidity Pressure Visibility Wind Dir Wind Speed Gust Speed Precip Events Conditions
12:53 AM 28.0 °F - 16.0 °F 61% 29.77 in 10.0 mi Calm Calm - N/A   Clear
1:53 AM 27.0 °F 20.5 °F 17.1 °F 66% 29.74 in 10.0 mi WNW 5.8 mph - N/A   Clear
2:53 AM 28.9 °F 23.9 °F 18.0 °F 64% 29.70 in 10.0 mi Variable 4.6 mph - N/A   Clear
3:53 AM 24.1 °F 14.4 °F 17.1 °F 75% 29.69 in 10.0 mi West 9.2 mph - N/A   Clear
4:53 AM 24.1 °F 17.0 °F 16.0 °F 71% 29.71 in 10.0 mi South 5.8 mph - N/A   Clear
5:53 AM 26.1 °F 12.7 °F 16.0 °F 66% 29.68 in 10.0 mi South 18.4 mph - N/A   Scattered Clouds
6:53 AM 28.9 °F 21.1 °F 17.1 °F 61% 29.68 in 10.0 mi West 8.1 mph - N/A   Clear
7:53 AM 33.1 °F 23.4 °F 24.1 °F 70% 29.75 in 10.0 mi NW 13.8 mph - N/A   Overcast
8:24 AM 33.8 °F 27.7 °F 24.8 °F 70% 29.68 in 10.0 mi WNW 6.9 mph - N/A   Overcast
8:51 AM 33.8 °F 26.4 °F 28.4 °F 81% 29.68 in 10.0 mi NW 9.2 mph 16.1 mph N/A   Overcast
8:53 AM 34.0 °F 26.6 °F 28.9 °F 82% 29.78 in 10.0 mi WNW 9.2 mph 16.1 mph N/A   Overcast
9:24 AM 33.8 °F 23.9 °F 28.4 °F 81% 29.67 in 10.0 mi NW 15.0 mph - 0.00 in   Overcast
9:53 AM 34.0 °F 23.4 °F 30.0 °F 85% 29.76 in 8.0 mi NW 17.3 mph - 0.00 in Snow Light Snow
10:01 AM 33.8 °F 22.8 °F 30.2 °F 87% 29.68 in 2.5 mi NW 18.4 mph - 0.00 in Snow Light Snow
10:06 AM 33.8 °F 22.8 °F 30.2 °F 87% 29.68 in 1.8 mi NW 18.4 mph 24.2 mph 0.00 in Snow Light Snow
10:34 AM 32.0 °F 20.8 °F 30.2 °F 93% 29.68 in 0.8 mi NW 17.3 mph - 0.01 in Snow Light Snow
10:53 AM 32.0 °F 19.5 °F 30.0 °F 92% 29.77 in 0.8 mi NW 21.9 mph 27.6 mph 0.02 in Snow Light Snow
10:57 AM 33.8 °F 22.2 °F 30.2 °F 87% 29.68 in 1.2 mi NW 20.7 mph - 0.00 in Snow Light Snow
11:16 AM 33.8 °F 21.9 °F 30.2 °F 87% 29.69 in 3.0 mi NW 21.9 mph - 0.00 in Snow Light Snow
11:27 AM 33.8 °F 22.2 °F 30.2 °F 87% 29.69 in 9.0 mi NW 20.7 mph - 0.00 in Snow Light Snow
11:53 AM 33.1 °F 24.9 °F 28.0 °F 82% 29.78 in 10.0 mi NW 10.4 mph - 0.00 in   Overcast
12:53 PM 34.0 °F 22.1 °F 24.1 °F 67% 29.76 in 10.0 mi NW 21.9 mph - N/A   Mostly Cloudy
1:53 PM 35.1 °F 23.0 °F 23.0 °F 61% 29.76 in 10.0 mi NW 24.2 mph - N/A   Partly Cloudy
2:53 PM 34.0 °F 22.4 °F 23.0 °F 64% 29.76 in 10.0 mi NW 20.7 mph 31.1 mph N/A   Clear
3:14 PM 32.0 °F 17.0 °F 28.4 °F 87% 29.71 in 0.8 mi NW 33.4 mph 44.9 mph 0.00 in Snow Light Snow
3:18 PM 30.2 °F 14.1 °F 28.4 °F 93% 29.72 in 0.2 mi NNW 35.7 mph 44.9 mph 0.00 in Fog , Snow Snow
3:30 PM 30.2 °F 15.7 °F 28.4 °F 93% 29.72 in 0.2 mi NW 27.6 mph 41.4 mph 0.00 in Fog , Snow Heavy Snow
3:46 PM 30.2 °F 17.1 °F 28.4 °F 93% 29.72 in 0.8 mi WNW 21.9 mph - 0.01 in Snow Light Snow
3:50 PM 30.2 °F 17.1 °F 28.4 °F 93% 29.72 in 1.5 mi NW 21.9 mph 28.8 mph 0.01 in Snow Light Snow
3:53 PM 32.0 °F 19.2 °F 27.0 °F 82% 29.83 in 5.0 mi WNW 23.0 mph 28.8 mph 0.01 in Snow Light Snow
4:08 PM 32.0 °F 18.9 °F 26.6 °F 80% 29.74 in 10.0 mi NW 24.2 mph 29.9 mph 0.00 in   Overcast
4:53 PM 30.0 °F 16.9 °F 26.1 °F 85% 29.88 in 10.0 mi NW 21.9 mph - 0.00 in   Clear
5:18 PM 30.2 °F 18.1 °F 26.6 °F 86% 29.78 in 2.0 mi NW 18.4 mph 26.5 mph 0.00 in Snow Light Snow
5:21 PM 30.2 °F 17.8 °F 26.6 °F 86% 29.79 in 3.0 mi NW 19.6 mph - 0.00 in Snow Light Snow
5:39 PM 30.2 °F 17.8 °F 26.6 °F 86% 29.79 in 9.0 mi NW 19.6 mph 27.6 mph N/A Snow Light Snow
5:53 PM 30.0 °F 17.5 °F 25.0 °F 82% 29.91 in 10.0 mi NW 19.6 mph - 0.00 in   Mostly Cloudy
6:06 PM 28.4 °F 13.0 °F 26.6 °F 93% 29.81 in 1.8 mi NNW 28.8 mph 34.5 mph 0.00 in Snow Light Snow
6:16 PM 28.4 °F 12.7 °F 26.6 °F 93% 29.81 in 0.8 mi NNW 29.9 mph 34.5 mph 0.00 in Snow Light Snow
6:20 PM 28.4 °F 12.5 °F 26.6 °F 93% 29.81 in 0.5 mi NNW 31.1 mph 39.1 mph 0.00 in Fog , Snow Snow
6:28 PM 28.4 °F 13.0 °F 26.6 °F 93% 29.81 in 0.5 mi NW 28.8 mph 40.3 mph N/A Fog , Snow Snow
6:44 PM 28.4 °F 13.8 °F 26.6 °F 93% 29.82 in 0.8 mi NW 25.3 mph - 0.02 in Snow Light Snow
6:53 PM 28.9 °F 14.5 °F 27.0 °F 92% 29.93 in 0.8 mi NW 25.3 mph - 0.02 in Snow Light Snow
7:02 PM 28.4 °F 14.7 °F 26.6 °F 93% 29.83 in 1.8 mi NW 21.9 mph - 0.00 in Snow Light Snow
7:04 PM 28.4 °F 15.1 °F 26.6 °F 93% 29.83 in 3.0 mi NW 20.7 mph - 0.00 in Snow Light Snow
7:28 PM 28.4 °F 17.0 °F 26.6 °F 93% 29.85 in 8.0 mi NW 15.0 mph - 0.01 in   Overcast
7:40 PM 28.4 °F 17.0 °F 26.6 °F 93% 29.85 in 10.0 mi NW 15.0 mph - 0.01 in   Overcast
7:48 PM 28.4 °F 16.6 °F 26.6 °F 93% 29.85 in 6.0 mi WNW 16.1 mph - 0.01 in Snow Light Snow
7:53 PM 30.0 °F 19.1 °F 26.1 °F 85% 29.94 in 5.0 mi NW 15.0 mph - 0.01 in Snow Light Snow
8:16 PM 28.4 °F 16.2 °F 26.6 °F 93% 29.86 in 2.0 mi NW 17.3 mph - 0.00 in Snow Light Snow
8:24 PM 28.4 °F 15.8 °F 26.6 °F 93% 29.86 in 8.0 mi WNW 18.4 mph - 0.00 in Snow Light Snow
8:33 PM 28.4 °F 15.1 °F 26.6 °F 93% 29.87 in 6.0 mi WNW 20.7 mph - 0.00 in Snow Light Snow
8:53 PM 30.0 °F 16.9 °F 25.0 °F 82% 29.96 in 6.0 mi NW 21.9 mph - 0.00 in Snow Light Snow
9:46 PM 28.4 °F 18.0 °F 24.8 °F 86% 29.89 in 10.0 mi WNW 12.7 mph - 0.00 in   Overcast
10:17 PM 28.4 °F 17.0 °F 24.8 °F 86% 29.90 in 10.0 mi WNW 15.0 mph - N/A   Overcast
10:39 PM 28.4 °F 17.5 °F 24.8 °F 86% 29.90 in 10.0 mi WNW 13.8 mph - N/A   Overcast
10:53 PM 28.9 °F 18.2 °F 24.1 °F 82% 30.00 in 10.0 mi WNW 13.8 mph - N/A   Overcast
11:25 PM 28.4 °F 18.5 °F 23.0 °F 80% 29.91 in 10.0 mi NW 11.5 mph - 0.00 in   Overcast
11:53 PM 28.9 °F 17.7 °F 23.0 °F 78% 30.01 in 10.0 mi NW 15.0 mph - 0.00 in   Overcast